TimeEST,TemperatureF,Dew PointF,Humidity,Sea Level PressureIn,VisibilityMPH,Wind Direction,Wind SpeedMPH,Gust SpeedMPH,PrecipitationIn,Events,Conditions,WindDirDegrees,DateUTC
12:15 AM,60.8,60.8,100,29.91,6.0,Calm,Calm,-,N/A,,Mostly Cloudy,0,2013-02-24 05:15:00
12:35 AM,60.8,60.8,100,29.92,8.0,Calm,Calm,-,N/A,Rain,Light Rain,0,2013-02-24 05:35:00
12:55 AM,60.8,60.8,100,29.90,3.0,Calm,Calm,-,0.04,Rain,Light Rain,0,2013-02-24 05:55:00
1:15 AM,60.8,60.8,100,29.89,9.0,Calm,Calm,-,N/A,,Mostly Cloudy,0,2013-02-24 06:15:00
1:35 AM,60.8,60.8,100,29.88,10.0,Calm,Calm,-,N/A,,Mostly Cloudy,0,2013-02-24 06:35:00
1:55 AM,60.8,60.8,100,29.88,10.0,Calm,Calm,-,N/A,,Scattered Clouds,0,2013-02-24 06:55:00
2:15 AM,60.8,60.8,100,29.88,10.0,Calm,Calm,-,N/A,,Mostly Cloudy,0,2013-02-24 07:15:00
2:35 AM,62.6,62.6,100,29.89,10.0,Calm,Calm,-,N/A,,Overcast,0,2013-02-24 07:35:00
2:55 AM,60.8,60.8,100,29.87,10.0,Calm,Calm,-,N/A,,Overcast,0,2013-02-24 07:55:00
3:15 AM,60.8,60.8,100,29.87,10.0,Calm,Calm,-,N/A,,Overcast,0,2013-02-24 08:15:00
3:35 AM,60.8,60.8,100,29.88,10.0,Calm,Calm,-,N/A,,Overcast,0,2013-02-24 08:35:00
3:55 AM,62.6,62.6,100,29.89,10.0,Calm,Calm,-,N/A,,Overcast,0,2013-02-24 08:55:00
4:15 AM,62.6,62.6,100,29.89,10.0,Calm,Calm,-,N/A,,Overcast,0,2013-02-24 09:15:00
4:55 AM,62.6,62.6,100,29.91,2.0,WNW,8.1,-,N/A,,Overcast,300,2013-02-24 09:55:00
5:15 AM,60.8,60.8,100,29.92,1.0,NW,8.1,-,N/A,Rain,Light Rain,310,2013-02-24 10:15:00
5:35 AM,60.8,60.8,100,29.92,1.8,NW,8.1,-,N/A,Rain,Light Rain,320,2013-02-24 10:35:00
5:55 AM,60.8,60.8,100,29.93,2.0,NNW,8.1,-,N/A,,Overcast,330,2013-02-24 10:55:00
6:15 AM,60.8,60.8,100,29.94,3.0,NNW,5.8,-,N/A,,Overcast,330,2013-02-24 11:15:00
6:35 AM,60.8,60.8,100,29.94,2.5,NNW,3.5,-,N/A,,Overcast,340,2013-02-24 11:35:00
6:50 AM,60.8,60.8,100,29.94,3.0,North,4.6,-,N/A,,Overcast,350,2013-02-24 11:50:00
7:50 AM,60.8,60.8,100,29.96,3.0,Calm,Calm,-,N/A,,Overcast,0,2013-02-24 12:50:00
8:50 AM,60.8,60.8,100,29.99,3.0,NNW,3.5,-,N/A,,Overcast,330,2013-02-24 13:50:00
9:50 AM,62.6,62.6,100,30.00,3.0,Calm,Calm,-,N/A,,Overcast,0,2013-02-24 14:50:00
10:50 AM,66.2,60.8,83,30.00,10.0,Calm,Calm,-,N/A,,Mostly Cloudy,0,2013-02-24 15:50:00
11:50 AM,68.0,60.8,78,30.00,10.0,NNE,4.6,-,N/A,,Scattered Clouds,30,2013-02-24 16:50:00
12:50 PM,69.8,59.0,68,29.97,10.0,NNW,6.9,-,N/A,,Scattered Clouds,340,2013-02-24 17:50:00
1:50 PM,73.4,59.0,61,29.96,10.0,North,5.8,-,N/A,,Partly Cloudy,360,2013-02-24 18:50:00
3:50 PM,73.4,59.0,61,29.94,10.0,ESE,8.1,-,N/A,,Mostly Cloudy,110,2013-02-24 20:50:00
4:50 PM,71.6,55.4,57,29.94,10.0,ESE,10.4,-,N/A,,Mostly Cloudy,120,2013-02-24 21:50:00
5:50 PM,68.0,44.6,43,29.95,10.0,East,10.4,-,N/A,,Mostly Cloudy,100,2013-02-24 22:50:00
6:50 PM,66.2,41.0,40,29.95,7.0,East,6.9,-,N/A,,Mostly Cloudy,80,2013-02-24 23:50:00
7:50 PM,62.6,46.4,55,29.98,7.0,East,4.6,-,N/A,,Mostly Cloudy,100,2013-02-25 00:50:00
8:15 PM,62.6,44.6,52,29.99,10.0,Calm,Calm,-,N/A,Thunderstorm,Partly Cloudy,0,2013-02-25 01:15:00
8:35 PM,57.2,50.0,77,29.99,7.0,South,3.5,-,N/A,Rain-Thunderstorm,Light Rain,190,2013-02-25 01:35:00
8:55 PM,57.2,53.6,88,30.02,10.0,Calm,Calm,-,N/A,Rain,Light Rain,0,2013-02-25 01:55:00
9:15 PM,55.4,53.6,94,30.01,4.0,Calm,Calm,-,0.01,Rain,Light Rain,0,2013-02-25 02:15:00
9:35 PM,55.4,50.0,82,29.97,3.0,SE,5.8,-,0.03,Rain,Light Rain,130,2013-02-25 02:35:00
9:55 PM,55.4,51.8,88,29.94,3.0,SE,8.1,-,0.06,Rain,Light Rain,130,2013-02-25 02:55:00
10:15 PM,55.4,51.8,88,29.95,10.0,NNW,15.0,-,N/A,Rain,Light Rain,340,2013-02-25 03:15:00
10:35 PM,53.6,50.0,88,29.98,10.0,Calm,Calm,-,N/A,,Clear,0,2013-02-25 03:35:00
10:55 PM,53.6,51.8,94,29.97,10.0,NNE,3.5,-,N/A,,Clear,30,2013-02-25 03:55:00
11:15 PM,53.6,51.8,94,29.98,10.0,Calm,Calm,-,N/A,,Partly Cloudy,0,2013-02-25 04:15:00
11:35 PM,53.6,53.6,100,29.97,10.0,Calm,Calm,-,N/A,,Scattered Clouds,0,2013-02-25 04:35:00
11:55 PM,55.4,53.6,94,29.96,10.0,Calm,Calm,-,N/A,,Partly Cloudy,0,2013-02-25 04:55:00